KF5WOE-13 Weather Reports


Display with metric or nautical units.
time (UTC)temp
F
wind
direction
speed
MPH
gust
MPH
rain 1hr
in
rain 24hr
in
rain mn
in
humidity
%
barometer
mb
20260504021626 140 167 0.0 0.0 0.00 0.00 0.00 1015.0
20260504021122 140 164 0.0 0.0 0.00 0.00 0.00 1015.1
20260504020619 140 168 3.0 3.0 0.00 0.00 0.00 1015.1
20260504020115 140 155 0.0 0.0 0.00 0.00 0.00 1015.1
20260504015612 140 173 2.0 3.0 0.00 0.00 0.00 1015.0
20260504015108 140 145 4.0 5.0 0.00 0.00 0.00 1014.8
20260504014604 140 186 0.0 1.0 0.00 0.00 0.00 1015.0
20260504014101 140 184 2.0 2.0 0.00 0.00 0.00 1015.0
20260504013559 140 170 3.0 3.0 0.00 0.00 0.00 1015.0
20260504013056 140 158 3.0 5.0 0.00 0.00 0.00 1015.0
20260504012553 140 179 3.0 5.0 0.00 0.00 0.00 1014.9
20260504012051 140 165 3.0 3.0 0.00 0.00 0.00 1014.7
20260504011547 140 191 0.0 0.0 0.00 0.00 0.00 1014.7
20260504011043 140 183 0.0 0.0 0.00 0.00 0.00 1014.6
20260504010539 140 173 0.0 0.0 0.00 0.00 0.00 1014.5
20260504010036 140 184 3.0 3.0 0.00 0.00 0.00 1014.5
20260504005532 140 190 3.0 5.0 0.00 0.00 0.00 1014.5
20260504005030 140 192 4.0 5.0 0.00 0.00 0.00 1014.7
20260504004528 140 180 3.0 3.0 0.00 0.00 0.00 1014.5
20260504004024 140 197 4.0 5.0 0.00 0.00 0.00 1014.5
20260504003520 140 182 4.0 6.0 0.00 0.00 0.00 1014.9
20260504003012 140 185 5.0 6.0 0.00 0.00 0.00 1014.6
20260504002508 140 170 4.0 6.0 0.00 0.00 0.00 1014.6
20260504002006 140 168 9.0 10.0 0.00 0.00 0.00 1014.8
20260504001504 140 189 8.0 10.0 0.00 0.00 0.00 1014.6
20260504001000 140 193 5.0 6.0 0.00 0.00 0.00 1014.8
20260504000457 140 166 6.0 9.0 0.00 0.00 0.00 1014.9
20260503235954 140 179 6.0 8.0 0.00 0.00 0.00 1014.8
20260503235452 140 222 5.0 7.0 0.00 0.00 0.00 1015.0
20260503234949 140 180 6.0 8.0 0.00 0.00 0.00 1015.0
20260503234446 140 203 6.0 8.0 0.00 0.00 0.00 1015.1
20260503233945 140 156 4.0 5.0 0.00 0.00 0.00 1014.8
20260503233440 140 164 6.0 8.0 0.00 0.00 0.00 1015.0
20260503232937 140 162 8.0 10.0 0.00 0.00 0.00 1015.1
20260503232434 140 196 3.0 5.0 0.00 0.00 0.00 1014.8
20260503231932 140 174 10.0 11.0 0.00 0.00 0.00 1014.8
20260503231429 140 188 6.0 8.0 0.00 0.00 0.00 1015.0
20260503230926 140 193 10.0 13.0 0.00 0.00 0.00 1014.8
20260503230422 140 198 8.0 9.0 0.00 0.00 0.00 1015.0
20260503225920 140 137 6.0 7.0 0.00 0.00 0.00 1015.3
20260503225416 140 184 7.0 8.0 0.00 0.00 0.00 1015.2
20260503224912 140 176 9.0 11.0 0.00 0.00 0.00 1015.3
20260503224409 140 189 7.0 8.0 0.00 0.00 0.00 1015.1
20260503223907 140 198 8.0 9.0 0.00 0.00 0.00 1015.4
20260503223405 140 179 10.0 10.0 0.00 0.00 0.00 1015.3
20260503222900 140 167 11.0 14.0 0.00 0.00 0.00 1015.3
20260503222359 140 132 11.0 13.0 0.00 0.00 0.00 1015.3
20260503221856 140 185 9.0 10.0 0.00 0.00 0.00 1015.5
20260503221354 140 164 6.0 7.0 0.00 0.00 0.00 1015.6
20260503220850 140 180 6.0 10.0 0.00 0.00 0.00 1015.6
20260503220347 140 164 6.0 7.0 0.00 0.00 0.00 1015.5
20260503215844 140 213 9.0 11.0 0.00 0.00 0.00 1015.6
20260503215341 140 199 7.0 8.0 0.00 0.00 0.00 1015.8
20260503214839 140 211 9.0 13.0 0.00 0.00 0.00 1015.9
20260503214337 140 186 8.0 9.0 0.00 0.00 0.00 1015.9
20260503213834 140 208 7.0 9.0 0.00 0.00 0.00 1015.9
20260503213331 140 130 13.0 15.0 0.00 0.00 0.00 1016.2
20260503212828 140 212 7.0 8.0 0.00 0.00 0.00 1016.2
20260503212326 140 212 6.0 8.0 0.00 0.00 0.00 1016.3
20260503211823 140 224 9.0 11.0 0.00 0.00 0.00 1016.5
20260503211319 140 167 7.0 11.0 0.00 0.00 0.00 1016.5
20260503210819 140 154 7.0 8.0 0.00 0.00 0.00 1016.4
20260503210317 140 176 6.0 7.0 0.00 0.00 0.00 1016.7
20260503205812 140 220 12.0 14.0 0.00 0.00 0.00 1016.7
20260503205309 140 208 11.0 15.0 0.00 0.00 0.00 1016.9
20260503204805 140 236 9.0 11.0 0.00 0.00 0.00 1016.9
20260503204303 140 165 5.0 8.0 0.00 0.00 0.00 1017.1
20260503203800 140 106 9.0 9.0 0.00 0.00 0.00 1017.1
20260503203257 140 181 11.0 14.0 0.00 0.00 0.00 1017.0
20260503202754 140 195 12.0 13.0 0.00 0.00 0.00 1017.3
20260503202252 140 142 7.0 9.0 0.00 0.00 0.00 1017.5
20260503201750 140 230 5.0 6.0 0.00 0.00 0.00 1017.6
20260503201247 140 144 4.0 6.0 0.00 0.00 0.00 1017.5
20260503200744 140 151 11.0 14.0 0.00 0.00 0.00 1017.8
20260503200240 140 169 6.0 7.0 0.00 0.00 0.00 1017.9
20260503195737 140 173 7.0 8.0 0.00 0.00 0.00 1018.1
20260503195234 140 226 7.0 8.0 0.00 0.00 0.00 1018.1
20260503194732 140 219 9.0 11.0 0.00 0.00 0.00 1018.0
20260503194227 140 115 5.0 7.0 0.00 0.00 0.00 1018.1
20260503193723 140 187 4.0 5.0 0.00 0.00 0.00 1018.3
20260503193219 140 153 7.0 9.0 0.00 0.00 0.00 1018.1
20260503192715 140 145 3.0 5.0 0.00 0.00 0.00 1018.5
20260503192211 140 150 8.0 10.0 0.00 0.00 0.00 1018.4
20260503191708 140 215 9.0 13.0 0.00 0.00 0.00 1018.6
20260503191205 140 195 10.0 11.0 0.00 0.00 0.00 1018.6
20260503190701 140 183 5.0 7.0 0.00 0.00 0.00 1018.7
20260503190159 140 198 12.0 16.0 0.00 0.00 0.00 1018.9
20260503185656 140 232 10.0 11.0 0.00 0.00 0.00 1018.9
20260503185150 140 229 10.0 14.0 0.00 0.00 0.00 1018.9
20260503184645 140 178 9.0 10.0 0.00 0.00 0.00 1019.0
20260503184143 140 196 8.0 10.0 0.00 0.00 0.00 1019.0
20260503183638 140 215 8.0 10.0 0.00 0.00 0.00 1019.1
20260503183136 140 218 6.0 7.0 0.00 0.00 0.00 1019.3
20260503182634 140 195 6.0 7.0 0.00 0.00 0.00 1019.2
20260503182132 140 192 7.0 10.0 0.00 0.00 0.00 1019.4
20260503181629 140 221 7.0 10.0 0.00 0.00 0.00 1019.3
20260503181126 140 199 5.0 7.0 0.00 0.00 0.00 1019.6
20260503180623 140 199 7.0 9.0 0.00 0.00 0.00 1019.4
20260503180121 140 196 3.0 5.0 0.00 0.00 0.00 1019.7
20260503175617 140 212 7.0 9.0 0.00 0.00 0.00 1019.8
20260503175114 140 249 9.0 11.0 0.00 0.00 0.00 1019.8
20260503174611 140 170 9.0 13.0 0.00 0.00 0.00 1020.0
20260503174108 140 240 8.0 9.0 0.00 0.00 0.00 1020.1
20260503173603 140 235 7.0 10.0 0.00 0.00 0.00 1020.1
20260503173100 140 227 8.0 9.0 0.00 0.00 0.00 1020.3
20260503172557 140 174 4.0 5.0 0.00 0.00 0.00 1020.1
20260503172054 140 225 9.0 10.0 0.00 0.00 0.00 1020.5
20260503171550 140 236 7.0 7.0 0.00 0.00 0.00 1020.6
20260503171048 140 230 10.0 13.0 0.00 0.00 0.00 1020.7
20260503170544 140 225 9.0 11.0 0.00 0.00 0.00 1020.8
20260503150931 140 232 7.0 9.0 0.00 0.00 0.00 1021.9
20260503150427 140 227 6.0 7.0 0.00 0.00 0.00 1021.8
20260503131320 140 76 0.0 0.0 0.00 0.00 0.00 1021.7
20260503130817 140 140 0.0 0.0 0.00 0.00 0.00 1021.7
20260503130309 140 113 0.0 0.0 0.00 0.00 0.00 1021.9
20260503110657 140 175 0.0 0.0 0.00 0.00 0.00 1020.7
20260503110154 140 175 0.0 0.0 0.00 0.00 0.00 1020.5
20260503100120 140 175 0.0 0.0 0.00 0.00 0.00 1020.3
20260503081510 140 174 0.0 0.0 0.00 0.00 0.00 1020.2
20260503081007 140 174 0.0 0.0 0.00 0.00 0.00 1020.1
20260503080503 140 174 0.0 0.0 0.00 0.00 0.00 1020.3
20260503072939 140 171 0.0 0.0 0.00 0.00 0.00 1020.4
20260503072437 140 171 0.0 0.0 0.00 0.00 0.00 1020.5
20260503071934 140 168 0.0 0.0 0.00 0.00 0.00 1020.6
20260503071431 140 186 0.0 0.0 0.00 0.00 0.00 1020.7
20260503070927 140 243 0.0 0.0 0.00 0.00 0.00 1020.4
20260503070424 140 259 0.0 0.0 0.00 0.00 0.00 1020.6
20260503054832 140 195 0.0 0.0 0.00 0.00 0.00 1020.6
20260503054328 140 171 0.0 0.0 0.00 0.00 0.00 1020.5
20260503053826 140 219 0.0 0.0 0.00 0.00 0.00 1020.4
20260503053324 140 250 0.0 0.0 0.00 0.00 0.00 1020.5
20260503052820 140 220 0.0 0.0 0.00 0.00 0.00 1020.5
20260503052317 140 187 0.0 0.0 0.00 0.00 0.00 1020.3
20260503051813 140 189 0.0 0.0 0.00 0.00 0.00 1020.5
20260503051310 140 266 0.0 0.0 0.00 0.00 0.00 1020.4
20260503050807 140 266 0.0 0.0 0.00 0.00 0.00 1020.4
20260503050303 140 277 0.0 0.0 0.00 0.00 0.00 1020.2
20260503045801 140 305 0.0 0.0 0.00 0.00 0.00 1020.3
20260503045258 140 266 0.0 0.0 0.00 0.00 0.00 1020.3
20260503044754 140 267 0.0 0.0 0.00 0.00 0.00 1020.2
20260503044251 140 207 0.0 0.0 0.00 0.00 0.00 1020.1
20260503043748 140 206 0.0 0.0 0.00 0.00 0.00 1020.0
20260503043245 140 205 0.0 0.0 0.00 0.00 0.00 1020.0
20260503042741 140 204 0.0 0.0 0.00 0.00 0.00 1020.1
20260503042238 140 202 0.0 0.0 0.00 0.00 0.00 1020.1
20260503041734 140 197 0.0 0.0 0.00 0.00 0.00 1020.1
20260503041232 140 198 0.0 0.0 0.00 0.00 0.00 1020.1
20260503040729 140 178 0.0 0.0 0.00 0.00 0.00 1019.9
20260503040227 140 181 0.0 0.0 0.00 0.00 0.00 1020.3
20260503035723 140 211 0.0 0.0 0.00 0.00 0.00 1020.1
20260503035221 140 211 0.0 0.0 0.00 0.00 0.00 1020.0
20260503034718 140 211 0.0 0.0 0.00 0.00 0.00 1020.0
20260503034215 140 211 0.0 0.0 0.00 0.00 0.00 1020.0
20260503033712 140 211 0.0 0.0 0.00 0.00 0.00 1020.0
20260503033210 140 211 0.0 0.0 0.00 0.00 0.00 1020.1
20260503032708 140 210 0.0 0.0 0.00 0.00 0.00 1020.0
20260503032206 140 210 0.0 0.0 0.00 0.00 0.00 1019.9
20260503031702 140 210 0.0 0.0 0.00 0.00 0.00 1019.6
20260503031201 140 210 0.0 0.0 0.00 0.00 0.00 1019.8
20260503030657 140 210 0.0 0.0 0.00 0.00 0.00 1019.8
20260503030154 140 210 0.0 0.0 0.00 0.00 0.00 1019.8
20260503025650 140 210 0.0 0.0 0.00 0.00 0.00 1019.6
20260503025149 140 210 0.0 0.0 0.00 0.00 0.00 1019.4
20260503024645 140 213 0.0 0.0 0.00 0.00 0.00 1019.6
20260503024142 140 214 0.0 0.0 0.00 0.00 0.00 1019.6
20260503023638 140 214 0.0 0.0 0.00 0.00 0.00 1019.4
20260503023136 140 214 0.0 0.0 0.00 0.00 0.00 1019.7
20260503022631 140 214 0.0 0.0 0.00 0.00 0.00 1019.3
20260503022126 140 214 0.0 0.0 0.00 0.00 0.00 1019.4